User: anonymous   Login
Location: A�t �Alizem
(31.2076°N, 8.7872°W)
Time: 18:43:11
(UTC+00:00)
Language:

THORAD AGENA D DEB - Orbit

View from above orbital plane
View from above orbital plane
View from above satellite
View from above satellite

Ground track
Ground track

The orbit data is extracted from the following two-line orbital elements,

1 42535U 70025SR  21172.40783129  .00000549  00000-0  63662-3 0  9994
2 42535  99.8695  34.7965 0081258 295.6760  63.6010 13.72513217379344
Epoch (UTC): 21 June 2021 09:47:16
Eccentricity: 0.0081258
inclination: 99.8695°
perigee height: 930 km
apogee height: 1050 km
right ascension of ascending node: 34.7965°
argument of perigee: 295.6760°
revolutions per day: 13.72513217
mean anomaly at epoch: 63.6010°
orbit number at epoch: 37934

The dashed part of the orbit path shows where the satellite is in the earth's shadow,  

DLR